| time (UTC) | temp C | wind direction | speed KPH | gust KPH | rain 1hr cm | rain 24hr cm | rain mn cm | humidity % | barometer mb |
| 20260505184143 | 27 | 170 | 1.6 | 1.6 | 0.00 | 0.00 | 0.00 | 73 | 1005.2 |
| 20260505183639 | 27 | 219 | 1.6 | 1.6 | 0.00 | 0.00 | 0.00 | 73 | 1005.5 |
| 20260505183137 | 27 | 183 | 1.6 | 1.6 | 0.00 | 0.00 | 0.00 | 73 | 1005.2 |
| 20260505182633 | 27 | 228 | 0.0 | 0.0 | 0.00 | 0.00 | 0.00 | 73 | 1005.4 |
| 20260505182130 | 27 | 212 | 0.0 | 0.0 | 0.00 | 0.00 | 0.00 | 73 | 1005.6 |
| 20260505181626 | 27 | 197 | 0.0 | 1.6 | 0.00 | 0.00 | 0.00 | 74 | 1005.5 |
| 20260505181124 | 27 | 174 | 3.2 | 4.8 | 0.00 | 0.00 | 0.00 | 73 | 1005.5 |
| 20260505180620 | 27 | 216 | 0.0 | 1.6 | 0.00 | 0.00 | 0.00 | 73 | 1005.6 |
| 20260505180117 | 27 | 172 | 1.6 | 3.2 | 0.00 | 0.00 | 0.00 | 74 | 1005.5 |
| 20260505175613 | 27 | 225 | 1.6 | 3.2 | 0.00 | 0.00 | 0.00 | 73 | 1005.6 |
| 20260505175109 | 27 | 203 | 0.0 | 0.0 | 0.00 | 0.00 | 0.00 | 72 | 1005.4 |
| 20260505174606 | 27 | 204 | 1.6 | 1.6 | 0.00 | 0.00 | 0.00 | 71 | 1005.6 |
| 20260505174102 | 27 | 199 | 1.6 | 3.2 | 0.00 | 0.00 | 0.00 | 72 | 1005.7 |
| 20260505173554 | 27 | 198 | 0.0 | 1.6 | 0.00 | 0.00 | 0.00 | 75 | 1005.4 |
| 20260505173051 | 27 | 173 | 1.6 | 3.2 | 0.00 | 0.00 | 0.00 | 73 | 1005.6 |
| 20260505172548 | 27 | 196 | 1.6 | 1.6 | 0.00 | 0.00 | 0.00 | 73 | 1005.6 |
| 20260505172045 | 27 | 176 | 0.0 | 0.0 | 0.00 | 0.00 | 0.00 | 73 | 1005.7 |
| 20260505171545 | 27 | 219 | 1.6 | 1.6 | 0.00 | 0.00 | 0.00 | 73 | 1005.6 |
| 20260505171042 | 27 | 193 | 0.0 | 0.0 | 0.00 | 0.00 | 0.00 | 74 | 1005.5 |
| 20260505170539 | 27 | 184 | 0.0 | 1.6 | 0.00 | 0.00 | 0.00 | 73 | 1005.6 |
| 20260505170035 | 27 | 169 | 3.2 | 3.2 | 0.00 | 0.00 | 0.00 | 73 | 1005.7 |
| 20260505165531 | 26 | 197 | 3.2 | 3.2 | 0.00 | 0.00 | 0.00 | 74 | 1005.8 |
| 20260505165026 | 26 | 199 | 0.0 | 0.0 | 0.00 | 0.00 | 0.00 | 75 | 1005.6 |
| 20260505164522 | 26 | 188 | 0.0 | 0.0 | 0.00 | 0.00 | 0.00 | 76 | 1005.7 |
| 20260505164021 | 26 | 184 | 1.6 | 1.6 | 0.00 | 0.00 | 0.00 | 75 | 1005.8 |
| 20260505163519 | 26 | 319 | 3.2 | 6.4 | 0.00 | 0.00 | 0.00 | 75 | 1005.7 |
| 20260505163015 | 26 | 182 | 3.2 | 4.8 | 0.00 | 0.00 | 0.00 | 75 | 1005.7 |
| 20260505162509 | 26 | 167 | 1.6 | 3.2 | 0.00 | 0.00 | 0.00 | 76 | 1005.3 |
| 20260505162006 | 26 | 353 | 1.6 | 3.2 | 0.00 | 0.00 | 0.00 | 76 | 1005.3 |
| 20260505161502 | 26 | 183 | 1.6 | 1.6 | 0.00 | 0.00 | 0.00 | 75 | 1005.4 |
| 20260505160959 | 26 | 190 | 1.6 | 3.2 | 0.00 | 0.00 | 0.00 | 76 | 1005.4 |
| 20260505160457 | 25 | 171 | 1.6 | 3.2 | 0.00 | 0.00 | 0.00 | 75 | 1005.5 |
| 20260505152934 | 25 | 213 | 1.6 | 1.6 | 0.00 | 0.00 | 0.00 | 79 | 1005.6 |
| 20260505152426 | 25 | 228 | 1.6 | 3.2 | 0.00 | 0.00 | 0.00 | 79 | 1005.6 |
| 20260505151925 | 25 | 218 | 1.6 | 3.2 | 0.00 | 0.00 | 0.00 | 80 | 1005.5 |
| 20260505151421 | 24 | 170 | 3.2 | 4.8 | 0.00 | 0.00 | 0.00 | 81 | 1005.6 |
| 20260505150919 | 24 | 202 | 1.6 | 1.6 | 0.00 | 0.00 | 0.00 | 82 | 1005.6 |
| 20260505150416 | 24 | 208 | 0.0 | 0.0 | 0.00 | 0.00 | 0.00 | 82 | 1005.7 |
| 20260505140340 | 22 | 208 | 1.6 | 1.6 | 0.00 | 0.00 | 0.00 | 85 | 1005.6 |
| 20260505130303 | 22 | 210 | 0.0 | 0.0 | 0.00 | 0.00 | 0.00 | 87 | 1005.3 |
| 20260505124754 | 21 | 191 | 0.0 | 0.0 | 0.00 | 0.00 | 0.00 | 87 | 1005.3 |
| 20260505124251 | 21 | 200 | 0.0 | 0.0 | 0.00 | 0.00 | 0.00 | 87 | 1005.2 |
| 20260505123746 | 21 | 226 | 0.0 | 0.0 | 0.00 | 0.00 | 0.00 | 87 | 1005.1 |
| 20260505123243 | 21 | 203 | 0.0 | 0.0 | 0.00 | 0.00 | 0.00 | 87 | 1005.0 |
| 20260505122739 | 21 | 198 | 0.0 | 0.0 | 0.00 | 0.00 | 0.00 | 87 | 1004.8 |
| 20260505122237 | 21 | 202 | 0.0 | 0.0 | 0.00 | 0.00 | 0.00 | 87 | 1004.8 |
| 20260505121733 | 21 | 199 | 0.0 | 0.0 | 0.00 | 0.00 | 0.00 | 87 | 1004.7 |
| 20260505121230 | 21 | 198 | 0.0 | 1.6 | 0.00 | 0.00 | 0.00 | 87 | 1004.8 |
| 20260505120726 | 21 | 197 | 0.0 | 0.0 | 0.00 | 0.00 | 0.00 | 87 | 1004.9 |
| 20260505120223 | 21 | 185 | 0.0 | 1.6 | 0.00 | 0.00 | 0.00 | 87 | 1004.7 |
| 20260505115721 | 21 | 203 | 0.0 | 0.0 | 0.00 | 0.00 | 0.00 | 87 | 1004.7 |
| 20260505115219 | 21 | 335 | 0.0 | 0.0 | 0.00 | 0.00 | 0.00 | 87 | 1004.4 |
| 20260505114716 | 21 | 190 | 0.0 | 0.0 | 0.00 | 0.00 | 0.00 | 87 | 1004.4 |
| 20260505114212 | 21 | 208 | 0.0 | 0.0 | 0.00 | 0.00 | 0.00 | 87 | 1004.4 |
| 20260505113709 | 21 | 187 | 0.0 | 0.0 | 0.00 | 0.00 | 0.00 | 87 | 1004.6 |
| 20260505113206 | 21 | 187 | 1.6 | 1.6 | 0.00 | 0.00 | 0.00 | 87 | 1004.3 |
| 20260505112702 | 21 | 187 | 0.0 | 0.0 | 0.00 | 0.00 | 0.00 | 87 | 1004.5 |
| 20260505112200 | 21 | 193 | 0.0 | 1.6 | 0.00 | 0.00 | 0.00 | 87 | 1004.7 |
| 20260505111659 | 21 | 205 | 1.6 | 1.6 | 0.00 | 0.00 | 0.00 | 86 | 1004.5 |
| 20260505111155 | 21 | 203 | 0.0 | 1.6 | 0.00 | 0.00 | 0.00 | 86 | 1004.5 |
| 20260505110651 | 21 | 200 | 0.0 | 0.0 | 0.00 | 0.00 | 0.00 | 86 | 1004.6 |
| 20260505110149 | 21 | 183 | 0.0 | 0.0 | 0.00 | 0.00 | 0.00 | 86 | 1004.7 |
| 20260505102125 | 21 | 197 | 1.6 | 3.2 | 0.00 | 0.00 | 0.00 | 85 | 1004.5 |
| 20260505101623 | 21 | 270 | 0.0 | 1.6 | 0.00 | 0.00 | 0.00 | 85 | 1004.7 |
| 20260505101119 | 21 | 192 | 1.6 | 1.6 | 0.00 | 0.00 | 0.00 | 85 | 1004.6 |
| 20260505100615 | 21 | 187 | 1.6 | 1.6 | 0.00 | 0.00 | 0.00 | 85 | 1004.7 |
| 20260505100113 | 21 | 276 | 1.6 | 1.6 | 0.00 | 0.00 | 0.00 | 85 | 1004.7 |
| 20260505095609 | 21 | 178 | 0.0 | 1.6 | 0.00 | 0.00 | 0.00 | 85 | 1004.7 |
| 20260505095106 | 21 | 203 | 0.0 | 1.6 | 0.00 | 0.00 | 0.00 | 85 | 1004.8 |
| 20260505094602 | 22 | 182 | 1.6 | 1.6 | 0.00 | 0.00 | 0.00 | 85 | 1004.9 |
| 20260505094058 | 22 | 197 | 0.0 | 1.6 | 0.00 | 0.00 | 0.00 | 85 | 1004.7 |
| 20260505093554 | 22 | 207 | 0.0 | 1.6 | 0.00 | 0.00 | 0.00 | 85 | 1004.7 |
| 20260505093052 | 22 | 151 | 0.0 | 0.0 | 0.00 | 0.00 | 0.00 | 85 | 1004.8 |
| 20260505092549 | 22 | 190 | 0.0 | 0.0 | 0.00 | 0.00 | 0.00 | 85 | 1004.9 |
| 20260505092048 | 21 | 215 | 1.6 | 3.2 | 0.00 | 0.00 | 0.00 | 85 | 1005.1 |
| 20260505091544 | 21 | 187 | 0.0 | 1.6 | 0.00 | 0.00 | 0.00 | 85 | 1005.1 |
| 20260505091043 | 21 | 252 | 1.6 | 3.2 | 0.00 | 0.00 | 0.00 | 85 | 1004.8 |
| 20260505090540 | 21 | 186 | 0.0 | 1.6 | 0.00 | 0.00 | 0.00 | 85 | 1005.0 |
| 20260505090038 | 21 | 190 | 0.0 | 0.0 | 0.00 | 0.00 | 0.00 | 85 | 1004.8 |
| 20260505085536 | 21 | 221 | 4.8 | 4.8 | 0.00 | 0.00 | 0.00 | 85 | 1004.9 |
| 20260505085034 | 21 | 232 | 0.0 | 0.0 | 0.00 | 0.00 | 0.00 | 86 | 1004.8 |
| 20260505084531 | 21 | 189 | 1.6 | 3.2 | 0.00 | 0.00 | 0.00 | 86 | 1005.0 |
| 20260505084029 | 21 | 236 | 1.6 | 1.6 | 0.00 | 0.00 | 0.00 | 86 | 1004.8 |
| 20260505083526 | 21 | 201 | 0.0 | 1.6 | 0.00 | 0.00 | 0.00 | 86 | 1005.0 |
| 20260505083023 | 21 | 203 | 0.0 | 0.0 | 0.00 | 0.00 | 0.00 | 86 | 1004.8 |
| 20260505082518 | 21 | 222 | 0.0 | 1.6 | 0.00 | 0.00 | 0.00 | 86 | 1005.1 |
| 20260505082015 | 21 | 195 | 0.0 | 0.0 | 0.00 | 0.00 | 0.00 | 86 | 1005.2 |
| 20260505081512 | 21 | 175 | 1.6 | 1.6 | 0.00 | 0.00 | 0.00 | 85 | 1005.1 |
| 20260505081009 | 21 | 209 | 0.0 | 1.6 | 0.00 | 0.00 | 0.00 | 85 | 1005.2 |
| 20260505080505 | 21 | 188 | 0.0 | 0.0 | 0.00 | 0.00 | 0.00 | 85 | 1005.2 |
| 20260505080001 | 21 | 192 | 0.0 | 1.6 | 0.00 | 0.00 | 0.00 | 85 | 1005.2 |
| 20260505075457 | 21 | 190 | 0.0 | 0.0 | 0.00 | 0.00 | 0.00 | 85 | 1005.4 |
| 20260505074955 | 21 | 191 | 0.0 | 0.0 | 0.00 | 0.00 | 0.00 | 85 | 1005.4 |
| 20260505074452 | 21 | 190 | 1.6 | 1.6 | 0.00 | 0.00 | 0.00 | 85 | 1005.4 |
| 20260505073949 | 21 | 181 | 1.6 | 1.6 | 0.00 | 0.00 | 0.00 | 84 | 1005.5 |
| 20260505073447 | 21 | 212 | 1.6 | 1.6 | 0.00 | 0.00 | 0.00 | 84 | 1005.6 |
| 20260505072943 | 21 | 215 | 1.6 | 3.2 | 0.00 | 0.00 | 0.00 | 84 | 1005.8 |
| 20260505072440 | 21 | 220 | 1.6 | 1.6 | 0.00 | 0.00 | 0.00 | 84 | 1005.9 |
| 20260505071936 | 22 | 190 | 1.6 | 3.2 | 0.00 | 0.00 | 0.00 | 83 | 1005.9 |
| 20260505071432 | 22 | 218 | 3.2 | 3.2 | 0.00 | 0.00 | 0.00 | 83 | 1006.0 |
| 20260505070930 | 22 | 194 | 3.2 | 4.8 | 0.00 | 0.00 | 0.00 | 83 | 1006.1 |
| 20260505070427 | 22 | 204 | 0.0 | 1.6 | 0.00 | 0.00 | 0.00 | 83 | 1006.0 |
| 20260505065922 | 22 | 196 | 0.0 | 0.0 | 0.00 | 0.00 | 0.00 | 83 | 1006.2 |
| 20260505065419 | 22 | 196 | 0.0 | 0.0 | 0.00 | 0.00 | 0.00 | 82 | 1006.2 |
| 20260505064916 | 22 | 201 | 0.0 | 0.0 | 0.00 | 0.00 | 0.00 | 82 | 1006.1 |
| 20260505064413 | 22 | 194 | 0.0 | 0.0 | 0.00 | 0.00 | 0.00 | 82 | 1006.2 |
| 20260505063911 | 22 | 197 | 3.2 | 4.8 | 0.00 | 0.00 | 0.00 | 82 | 1006.4 |
| 20260505063407 | 22 | 202 | 1.6 | 1.6 | 0.00 | 0.00 | 0.00 | 81 | 1006.5 |
| 20260505062904 | 22 | 185 | 0.0 | 0.0 | 0.00 | 0.00 | 0.00 | 81 | 1006.4 |
| 20260505062401 | 22 | 183 | 0.0 | 0.0 | 0.00 | 0.00 | 0.00 | 81 | 1006.4 |
| 20260505061858 | 22 | 203 | 0.0 | 0.0 | 0.00 | 0.00 | 0.00 | 81 | 1006.2 |
| 20260505061356 | 22 | 296 | 1.6 | 1.6 | 0.00 | 0.00 | 0.00 | 80 | 1006.4 |
| 20260505060853 | 22 | 192 | 0.0 | 0.0 | 0.00 | 0.00 | 0.00 | 80 | 1006.3 |
| 20260505060350 | 22 | 176 | 0.0 | 0.0 | 0.00 | 0.00 | 0.00 | 80 | 1006.3 |
| 20260505055846 | 22 | 203 | 0.0 | 0.0 | 0.00 | 0.00 | 0.00 | 79 | 1006.3 |
| 20260505055342 | 22 | 220 | 1.6 | 3.2 | 0.00 | 0.00 | 0.00 | 79 | 1006.4 |
| 20260505054839 | 22 | 206 | 0.0 | 0.0 | 0.00 | 0.00 | 0.00 | 79 | 1006.3 |
| 20260505054337 | 22 | 202 | 0.0 | 1.6 | 0.00 | 0.00 | 0.00 | 79 | 1006.4 |
| 20260505053835 | 22 | 197 | 0.0 | 1.6 | 0.00 | 0.00 | 0.00 | 79 | 1006.4 |
| 20260505053331 | 22 | 179 | 1.6 | 1.6 | 0.00 | 0.00 | 0.00 | 78 | 1006.4 |
| 20260505052828 | 22 | 190 | 1.6 | 4.8 | 0.00 | 0.00 | 0.00 | 78 | 1006.5 |
| 20260505052325 | 22 | 258 | 0.0 | 1.6 | 0.00 | 0.00 | 0.00 | 78 | 1006.4 |
| 20260505051823 | 22 | 188 | 0.0 | 1.6 | 0.00 | 0.00 | 0.00 | 77 | 1006.4 |
| 20260505051320 | 22 | 192 | 0.0 | 0.0 | 0.00 | 0.00 | 0.00 | 77 | 1006.7 |
| 20260505050818 | 22 | 179 | 1.6 | 1.6 | 0.00 | 0.00 | 0.00 | 77 | 1006.7 |
| 20260505050317 | 22 | 197 | 1.6 | 3.2 | 0.00 | 0.00 | 0.00 | 77 | 1006.6 |
| 20260505041746 | 23 | 187 | 0.0 | 0.0 | 0.00 | 0.00 | 0.00 | 75 | 1006.9 |
| 20260505041243 | 23 | 209 | 1.6 | 1.6 | 0.00 | 0.00 | 0.00 | 75 | 1006.8 |
| 20260505040740 | 23 | 221 | 0.0 | 0.0 | 0.00 | 0.00 | 0.00 | 75 | 1006.8 |
| 20260505040238 | 23 | 185 | 0.0 | 0.0 | 0.00 | 0.00 | 0.00 | 75 | 1006.9 |
| 20260505035734 | 23 | 199 | 0.0 | 0.0 | 0.00 | 0.00 | 0.00 | 75 | 1006.9 |
| 20260505035230 | 22 | 206 | 0.0 | 0.0 | 0.00 | 0.00 | 0.00 | 75 | 1006.7 |
| 20260505034727 | 23 | 186 | 0.0 | 0.0 | 0.00 | 0.00 | 0.00 | 75 | 1006.7 |
| 20260505034224 | 22 | 194 | 0.0 | 0.0 | 0.00 | 0.00 | 0.00 | 75 | 1006.7 |
| 20260505033721 | 22 | 207 | 0.0 | 0.0 | 0.00 | 0.00 | 0.00 | 75 | 1006.7 |
| 20260505033219 | 23 | 192 | 0.0 | 0.0 | 0.00 | 0.00 | 0.00 | 75 | 1006.7 |
| 20260505032717 | 23 | 210 | 0.0 | 0.0 | 0.00 | 0.00 | 0.00 | 74 | 1006.8 |
| 20260505032212 | 23 | 191 | 0.0 | 0.0 | 0.00 | 0.00 | 0.00 | 74 | 1006.8 |
| 20260505031710 | 23 | 198 | 0.0 | 0.0 | 0.00 | 0.00 | 0.00 | 74 | 1007.0 |
| 20260505031206 | 23 | 203 | 0.0 | 0.0 | 0.00 | 0.00 | 0.00 | 73 | 1007.1 |
| 20260505030703 | 23 | 192 | 0.0 | 0.0 | 0.00 | 0.00 | 0.00 | 73 | 1007.1 |
| 20260505030159 | 23 | 209 | 0.0 | 0.0 | 0.00 | 0.00 | 0.00 | 73 | 1006.9 |
| 20260505025655 | 23 | 205 | 0.0 | 0.0 | 0.00 | 0.00 | 0.00 | 73 | 1006.9 |
| 20260505025153 | 23 | 171 | 0.0 | 1.6 | 0.00 | 0.00 | 0.00 | 72 | 1007.0 |
| 20260505024651 | 23 | 159 | 1.6 | 1.6 | 0.00 | 0.00 | 0.00 | 72 | 1006.8 |
| 20260505024147 | 23 | 199 | 0.0 | 0.0 | 0.00 | 0.00 | 0.00 | 72 | 1006.9 |
| 20260505023645 | 23 | 157 | 0.0 | 0.0 | 0.00 | 0.00 | 0.00 | 72 | 1006.9 |
| 20260505023143 | 23 | 205 | 0.0 | 0.0 | 0.00 | 0.00 | 0.00 | 71 | 1006.5 |
| 20260505022640 | 23 | 195 | 0.0 | 0.0 | 0.00 | 0.00 | 0.00 | 71 | 1006.5 |
| 20260505022137 | 23 | 206 | 0.0 | 0.0 | 0.00 | 0.00 | 0.00 | 71 | 1006.3 |
| 20260505021633 | 23 | 173 | 0.0 | 0.0 | 0.00 | 0.00 | 0.00 | 70 | 1006.6 |
| 20260505021130 | 23 | 190 | 0.0 | 0.0 | 0.00 | 0.00 | 0.00 | 71 | 1006.7 |
| 20260505020626 | 23 | 239 | 3.2 | 3.2 | 0.00 | 0.00 | 0.00 | 71 | 1006.5 |
| 20260505020122 | 23 | 307 | 0.0 | 1.6 | 0.00 | 0.00 | 0.00 | 70 | 1006.3 |
| 20260505015619 | 23 | 203 | 0.0 | 0.0 | 0.00 | 0.00 | 0.00 | 70 | 1006.7 |
| 20260505015111 | 23 | 190 | 1.6 | 1.6 | 0.00 | 0.00 | 0.00 | 70 | 1006.4 |
| 20260505014607 | 24 | 195 | 0.0 | 0.0 | 0.00 | 0.00 | 0.00 | 69 | 1006.5 |
| 20260505014104 | 23 | 192 | 0.0 | 0.0 | 0.00 | 0.00 | 0.00 | 70 | 1006.6 |
| 20260505013602 | 24 | 199 | 0.0 | 0.0 | 0.00 | 0.00 | 0.00 | 69 | 1006.6 |
| 20260505013059 | 24 | 199 | 0.0 | 0.0 | 0.00 | 0.00 | 0.00 | 69 | 1006.6 |
| 20260505012557 | 24 | 146 | 1.6 | 3.2 | 0.00 | 0.00 | 0.00 | 69 | 1006.6 |
| 20260505012054 | 24 | 208 | 0.0 | 0.0 | 0.00 | 0.00 | 0.00 | 69 | 1006.7 |
| 20260505011549 | 24 | 205 | 0.0 | 0.0 | 0.00 | 0.00 | 0.00 | 69 | 1006.6 |
| 20260505011047 | 25 | 206 | 0.0 | 0.0 | 0.00 | 0.00 | 0.00 | 68 | 1006.5 |
| 20260505010542 | 25 | 229 | 3.2 | 3.2 | 0.00 | 0.00 | 0.00 | 67 | 1006.5 |
| 20260505010039 | 25 | 193 | 0.0 | 0.0 | 0.00 | 0.00 | 0.00 | 67 | 1006.5 |
| 20260505005535 | 25 | 46 | 1.6 | 1.6 | 0.00 | 0.00 | 0.00 | 67 | 1006.7 |
| 20260505005032 | 25 | 170 | 1.6 | 3.2 | 0.00 | 0.00 | 0.00 | 66 | 1006.6 |
| 20260505004529 | 25 | 188 | 0.0 | 0.0 | 0.00 | 0.00 | 0.00 | 66 | 1006.5 |
| 20260505004026 | 25 | 175 | 3.2 | 4.8 | 0.00 | 0.00 | 0.00 | 66 | 1006.6 |
| 20260505003523 | 25 | 199 | 0.0 | 1.6 | 0.00 | 0.00 | 0.00 | 65 | 1006.5 |
| 20260505003020 | 25 | 171 | 3.2 | 3.2 | 0.00 | 0.00 | 0.00 | 65 | 1006.8 |
| 20260505002515 | 25 | 172 | 0.0 | 0.0 | 0.00 | 0.00 | 0.00 | 66 | 1006.6 |
| 20260505002014 | 25 | 217 | 1.6 | 1.6 | 0.00 | 0.00 | 0.00 | 66 | 1006.7 |
| 20260505001511 | 25 | 188 | 0.0 | 1.6 | 0.00 | 0.00 | 0.00 | 65 | 1006.9 |
| 20260505001008 | 25 | 231 | 1.6 | 1.6 | 0.00 | 0.00 | 0.00 | 65 | 1007.0 |
| 20260505000506 | 25 | 193 | 1.6 | 3.2 | 0.00 | 0.00 | 0.00 | 65 | 1006.7 |
| 20260505000003 | 25 | 194 | 0.0 | 0.0 | 0.00 | 0.00 | 0.00 | 64 | 1006.9 |
| 20260504235459 | 25 | 215 | 4.8 | 6.4 | 0.00 | 0.00 | 0.00 | 64 | 1006.9 |
| 20260504234956 | 25 | 186 | 0.0 | 0.0 | 0.00 | 0.00 | 0.00 | 64 | 1007.1 |
| 20260504234453 | 25 | 186 | 0.0 | 1.6 | 0.00 | 0.00 | 0.00 | 64 | 1007.2 |
| 20260504233949 | 25 | 203 | 3.2 | 4.8 | 0.00 | 0.00 | 0.00 | 63 | 1007.2 |
| 20260504233445 | 25 | 240 | 3.2 | 4.8 | 0.00 | 0.00 | 0.00 | 63 | 1007.1 |
| 20260504232943 | 25 | 197 | 0.0 | 0.0 | 0.00 | 0.00 | 0.00 | 63 | 1007.0 |
| 20260504232439 | 25 | 198 | 3.2 | 3.2 | 0.00 | 0.00 | 0.00 | 63 | 1007.1 |
| 20260504231937 | 26 | 208 | 0.0 | 1.6 | 0.00 | 0.00 | 0.00 | 63 | 1007.1 |
| 20260504231433 | 26 | 197 | 1.6 | 3.2 | 0.00 | 0.00 | 0.00 | 62 | 1007.0 |
| 20260504230929 | 26 | 180 | 1.6 | 1.6 | 0.00 | 0.00 | 0.00 | 63 | 1007.2 |
| 20260504230426 | 26 | 211 | 0.0 | 0.0 | 0.00 | 0.00 | 0.00 | 62 | 1007.3 |
| 20260504225925 | 26 | 172 | 1.6 | 3.2 | 0.00 | 0.00 | 0.00 | 62 | 1007.4 |
| 20260504225422 | 26 | 184 | 1.6 | 1.6 | 0.00 | 0.00 | 0.00 | 62 | 1007.1 |
| 20260504224919 | 26 | 179 | 3.2 | 4.8 | 0.00 | 0.00 | 0.00 | 62 | 1007.4 |
| 20260504224415 | 26 | 174 | 1.6 | 3.2 | 0.00 | 0.00 | 0.00 | 61 | 1007.3 |
| 20260504223913 | 26 | 240 | 0.0 | 1.6 | 0.00 | 0.00 | 0.00 | 61 | 1007.3 |
| 20260504223408 | 26 | 179 | 1.6 | 3.2 | 0.00 | 0.00 | 0.00 | 62 | 1007.4 |
| 20260504222904 | 26 | 187 | 3.2 | 3.2 | 0.00 | 0.00 | 0.00 | 61 | 1007.3 |
| 20260504222401 | 26 | 171 | 0.0 | 1.6 | 0.00 | 0.00 | 0.00 | 61 | 1007.4 |
| 20260504221900 | 26 | 176 | 1.6 | 3.2 | 0.00 | 0.00 | 0.00 | 61 | 1007.4 |
| 20260504221356 | 26 | 197 | 1.6 | 3.2 | 0.00 | 0.00 | 0.00 | 61 | 1007.7 |
| 20260504220854 | 26 | 189 | 0.0 | 0.0 | 0.00 | 0.00 | 0.00 | 61 | 1007.6 |
| 20260504220350 | 26 | 188 | 0.0 | 0.0 | 0.00 | 0.00 | 0.00 | 61 | 1007.8 |
| 20260504215847 | 26 | 198 | 0.0 | 1.6 | 0.00 | 0.00 | 0.00 | 60 | 1007.7 |
| 20260504215343 | 26 | 189 | 1.6 | 1.6 | 0.00 | 0.00 | 0.00 | 60 | 1007.9 |
| 20260504214840 | 26 | 176 | 4.8 | 4.8 | 0.00 | 0.00 | 0.00 | 59 | 1007.8 |
| 20260504214337 | 26 | 207 | 1.6 | 3.2 | 0.00 | 0.00 | 0.00 | 59 | 1007.7 |
| 20260504213833 | 26 | 177 | 3.2 | 4.8 | 0.00 | 0.00 | 0.00 | 60 | 1008.0 |
| 20260504213329 | 26 | 255 | 1.6 | 1.6 | 0.00 | 0.00 | 0.00 | 60 | 1008.1 |
| 20260504212827 | 26 | 171 | 1.6 | 3.2 | 0.00 | 0.00 | 0.00 | 59 | 1008.0 |
| 20260504212323 | 27 | 197 | 3.2 | 4.8 | 0.00 | 0.00 | 0.00 | 58 | 1008.3 |
| 20260504211821 | 26 | 226 | 1.6 | 1.6 | 0.00 | 0.00 | 0.00 | 59 | 1008.3 |
| 20260504211316 | 26 | 198 | 0.0 | 0.0 | 0.00 | 0.00 | 0.00 | 60 | 1008.4 |
| 20260504210814 | 26 | 194 | 0.0 | 0.0 | 0.00 | 0.00 | 0.00 | 60 | 1008.5 |
| 20260504210311 | 26 | 253 | 0.0 | 0.0 | 0.00 | 0.00 | 0.00 | 60 | 1008.4 |
| 20260504205808 | 26 | 203 | 0.0 | 1.6 | 0.00 | 0.00 | 0.00 | 60 | 1008.7 |
| 20260504205306 | 26 | 193 | 6.4 | 9.7 | 0.00 | 0.00 | 0.00 | 60 | 1008.9 |
| 20260504204804 | 26 | 192 | 3.2 | 3.2 | 0.00 | 0.00 | 0.00 | 60 | 1008.8 |
| 20260504204302 | 26 | 196 | 3.2 | 3.2 | 0.00 | 0.00 | 0.00 | 60 | 1008.9 |
| 20260504203801 | 26 | 219 | 1.6 | 3.2 | 0.00 | 0.00 | 0.00 | 60 | 1009.2 |
| 20260504203258 | 26 | 204 | 1.6 | 1.6 | 0.00 | 0.00 | 0.00 | 60 | 1009.0 |
| 20260504202758 | 26 | 200 | 0.0 | 0.0 | 0.00 | 0.00 | 0.00 | 60 | 1009.4 |
| 20260504202256 | 26 | 225 | 0.0 | 0.0 | 0.00 | 0.00 | 0.00 | 60 | 1009.4 |
| 20260504201753 | 26 | 312 | 1.6 | 3.2 | 0.00 | 0.00 | 0.00 | 59 | 1009.6 |
| 20260504201250 | 26 | 208 | 3.2 | 4.8 | 0.00 | 0.00 | 0.00 | 59 | 1009.6 |
| 20260504200748 | 26 | 201 | 1.6 | 3.2 | 0.00 | 0.00 | 0.00 | 58 | 1009.8 |
| 20260504200243 | 26 | 190 | 0.0 | 0.0 | 0.00 | 0.00 | 0.00 | 59 | 1009.9 |
| 20260504195740 | 26 | 186 | 1.6 | 3.2 | 0.00 | 0.00 | 0.00 | 57 | 1009.9 |
| 20260504195236 | 26 | 228 | 1.6 | 1.6 | 0.00 | 0.00 | 0.00 | 58 | 1010.4 |
| 20260504194733 | 26 | 204 | 1.6 | 1.6 | 0.00 | 0.00 | 0.00 | 57 | 1010.0 |
| 20260504194229 | 26 | 211 | 1.6 | 6.4 | 0.00 | 0.00 | 0.00 | 57 | 1010.2 |
| 20260504193726 | 26 | 223 | 0.0 | 1.6 | 0.00 | 0.00 | 0.00 | 59 | 1010.2 |
| 20260504193223 | 26 | 199 | 0.0 | 0.0 | 0.00 | 0.00 | 0.00 | 58 | 1010.3 |
| 20260504192722 | 26 | 195 | 1.6 | 3.2 | 0.00 | 0.00 | 0.00 | 58 | 1010.4 |
| 20260504192219 | 25 | 175 | 3.2 | 4.8 | 0.00 | 0.00 | 0.00 | 57 | 1010.6 |
| 20260504191718 | 25 | 204 | 0.0 | 1.6 | 0.00 | 0.00 | 0.00 | 58 | 1010.7 |
| 20260504191214 | 26 | 167 | 3.2 | 4.8 | 0.00 | 0.00 | 0.00 | 56 | 1010.6 |
| 20260504190709 | 26 | 299 | 6.4 | 9.7 | 0.00 | 0.00 | 0.00 | 55 | 1010.6 |
| 20260504190206 | 25 | 150 | 1.6 | 4.8 | 0.00 | 0.00 | 0.00 | 56 | 1010.8 |
| 20260504185703 | 25 | 201 | 1.6 | 1.6 | 0.00 | 0.00 | 0.00 | 57 | 1010.8 |
| 20260504185159 | 25 | 188 | 0.0 | 0.0 | 0.00 | 0.00 | 0.00 | 57 | 1010.8 |
| 20260504184656 | 25 | 194 | 4.8 | 6.4 | 0.00 | 0.00 | 0.00 | 56 | 1010.9 |